To NAV CANADA Home Page Login to a new session Search on AWWS site Feedback and Comments Disclaimer Vers la page française équivalente Tips FAQ What's new on the site To the Forecasts and Observations / NOTAM section To "File a Flight Plan" website Publications and other links Update of the User's profile FIC Telephone Numbers My Weather Data Folder Route Weather Data Regional Weather Data Local Weather Data To the Forecasts and Observations / NOTAM section
Request Generated 05/25/2016 at 03:13:13 UTC . Weather information available at that time is displayed.

METAR/TAF

DAWSON CITY/YT    

LWIS CYDA 250300Z AUTO VRB04KT 15/M00 A2991=
LWIS CYDA 250200Z AUTO 25009G16KT 230V300 16/M00 A2990=
LWIS CYDA 250100Z AUTO VRB05KT 16/01 A2991=

*** REMARK        : Forecast period has ended; this was the last TAF issued
*** REMARQUE : La période de prévision est échue; ceci était le dernier TAF qui a été émis
TAF CYDA 241738Z 2418/2423 23008KT P6SM FEW050 BKN200
FM242100 25008KT P6SM BKN060 TEMPO 2421/2423 P6SM -SHRA
RMK NXT FCST WILL BE ISSUED AT 251545Z=
Your time UTC time
Weather data provided by Environment Canada and NAV CANADA